Theta_e
274 275 275 275 275 275 275 276 276 277 277 278 279 280 280 281 281 282 283 284 284 285 285 285 285 286 286 287 288 288 289 290 290 291 292 294 296 296 296 296 294 294 298 302 303 304 304 305 305 304 301 299 299 302 304 305 308 310 310 310 310 310 310 311 312 312 311 311 310 310 310 309 308 307
274 274 274 274 275 275 275 275 276 276 277 277 278 279 280 280 281 281 282 283 283 284 285 285 285 286 286 286 287 287 288 289 289 289 289 290 292 293 295 296 295 294 295 299 302 303 303 304 305 305 304 300 299 300 301 303 306 309 310 310 310 310 310 310 310 311 311 312 311 310 310 310 309 308
273 273 274 274 274 274 275 275 276 276 277 277 277 278 279 279 280 280 281 282 282 283 283 284 284 286 287 287 287 287 288 290 290 290 290 289 289 290 291 292 293 293 292 295 299 302 302 303 304 305 305 303 300 299 300 302 304 307 309 309 310 310 310 310 310 310 310 311 311 310 310 310 309 309
273 273 273 274 274 274 274 275 275 276 277 277 278 278 279 279 280 280 281 281 282 282 282 283 283 284 285 287 288 288 290 291 292 292 292 292 291 290 289 289 290 290 289 290 295 299 301 302 303 304 304 304 303 300 299 300 301 304 307 309 309 310 311 310 310 310 310 309 310 310 310 309 309 309
273 273 273 274 274 274 274 274 275 276 276 277 278 279 279 280 280 280 281 281 282 282 282 283 283 283 283 285 286 286 288 289 290 292 293 293 293 292 291 290 290 290 289 290 292 297 300 301 302 303 303 304 304 302 300 299 299 300 304 308 309 309 310 310 310 311 310 309 310 310 310 309 309 309
273 273 273 274 274 274 275 275 275 276 276 277 278 279 279 280 280 280 280 281 281 282 282 282 283 283 283 284 285 285 286 287 288 289 290 292 292 293 292 291 290 290 291 291 292 294 298 300 301 302 303 303 304 304 302 300 299 298 300 305 307 308 309 310 310 310 310 310 310 310 310 310 309 309
272 272 273 274 274 274 275 275 275 276 276 277 277 278 278 279 280 280 280 281 281 282 282 282 283 283 284 284 284 284 285 286 286 287 287 288 290 291 292 292 291 291 292 293 293 294 296 298 301 301 302 302 303 304 304 303 301 299 298 300 304 306 307 309 309 310 310 310 310 310 310 309 309 309
272 272 273 273 274 274 275 275 275 276 276 277 277 277 278 278 279 279 279 280 281 281 282 282 283 283 284 284 284 284 285 285 286 286 286 287 288 289 290 291 292 291 292 293 293 294 295 297 299 301 301 302 302 303 304 304 303 301 299 298 300 303 305 307 308 309 309 309 309 309 309 309 309 309
272 273 273 273 273 274 274 275 275 276 276 277 277 278 278 279 279 279 279 280 280 281 281 282 282 283 284 284 284 284 285 285 286 286 286 287 288 289 290 291 291 290 291 292 292 293 295 296 298 299 301 301 302 302 304 304 304 303 301 299 298 300 303 305 307 308 308 309 309 309 309 309 310 309
272 272 272 272 273 273 274 274 275 275 276 276 277 278 278 279 280 280 281 281 281 281 282 282 283 284 284 284 284 284 285 286 286 286 286 287 289 289 290 290 290 289 290 291 292 292 293 295 297 298 300 301 301 302 303 303 303 303 303 301 298 297 299 303 305 306 307 308 308 308 308 308 309 309
271 272 272 272 273 274 274 274 275 275 276 276 277 278 278 279 280 281 281 282 283 283 283 283 284 284 284 284 284 284 285 286 286 286 286 287 288 289 289 289 289 289 289 290 291 292 292 294 296 297 299 300 301 301 301 302 303 302 302 302 300 297 297 300 303 304 306 307 307 308 308 307 308 308
271 272 273 273 274 274 274 275 275 276 276 277 277 278 279 279 280 281 282 282 283 284 284 284 284 284 285 285 285 285 285 286 286 285 286 287 288 288 289 289 289 289 289 290 291 292 293 294 295 296 297 299 300 300 299 300 301 301 301 301 300 298 296 296 298 301 303 305 306 307 307 307 307 307
272 273 274 274 275 275 275 276 276 277 277 278 278 279 279 280 281 282 282 283 283 283 284 284 284 285 285 285 285 285 285 286 286 286 286 287 288 288 288 289 289 289 289 290 291 292 293 294 294 295 297 297 298 299 298 298 299 300 299 298 298 297 296 295 295 296 298 300 303 304 305 306 307 306
272 273 274 275 276 276 277 277 278 278 278 279 279 279 280 281 281 282 282 283 283 283 284 284 285 285 286 286 286 286 286 287 287 287 287 287 288 288 288 288 288 289 289 289 290 292 293 293 293 294 296 297 298 298 298 298 298 299 298 297 295 295 295 295 294 294 294 295 297 300 301 303 305 306
272 273 274 275 276 277 278 279 280 280 280 280 280 280 281 281 282 282 282 283 283 283 284 284 285 286 287 286 286 287 287 287 288 288 288 288 287 288 288 288 288 288 289 289 290 291 291 291 292 293 295 296 297 297 298 298 298 298 298 296 295 294 295 295 295 296 296 295 294 295 297 299 301 303
272 273 274 275 276 277 278 279 280 280 281 281 280 281 282 282 283 283 283 283 283 283 283 283 284 285 286 287 287 287 287 287 287 287 288 287 287 287 287 287 288 288 289 289 289 290 291 291 290 292 293 295 296 297 297 297 297 297 297 296 295 295 295 296 296 297 297 296 295 294 294 295 296 297
273 274 274 275 276 277 278 279 280 280 281 282 282 282 282 282 282 282 282 283 283 283 283 283 284 285 285 286 287 287 287 287 287 287 288 287 286 286 287 287 287 288 288 289 289 289 290 290 290 291 292 294 295 295 296 296 296 296 296 296 295 295 295 296 296 297 297 297 296 295 294 294 294 294
274 274 275 275 277 279 279 279 280 281 282 282 282 282 282 282 282 282 282 282 283 283 283 283 283 284 284 285 286 286 287 287 287 287 287 287 286 286 286 287 287 287 287 288 288 288 289 290 290 291 292 293 294 294 294 295 295 295 295 295 295 294 294 295 295 296 296 296 296 296 295 295 294 294
275 275 275 276 278 279 280 280 280 281 282 282 283 283 283 283 283 282 282 282 282 282 282 282 283 283 283 284 285 286 286 286 287 286 287 287 287 287 287 287 286 286 287 287 287 287 288 288 289 290 291 292 293 293 293 293 293 293 293 293 294 294 294 294 294 295 295 296 296 296 295 295 295 295
276 276 276 277 278 280 280 280 280 281 281 282 282 283 283 283 283 283 283 282 282 282 282 282 282 283 283 283 284 285 285 286 286 286 286 286 286 286 286 287 287 287 287 287 286 286 287 287 288 288 289 290 291 292 292 292 292 292 292 293 293 293 293 293 293 294 294 294 295 295 295 295 295 296
277 278 278 278 279 279 280 280 280 281 281 282 282 282 282 283 283 283 283 283 283 283 283 283 283 282 283 283 283 284 285 285 285 286 286 286 285 286 286 286 286 287 287 287 286 286 287 287 287 288 288 289 289 290 291 291 292 292 292 292 292 293 293 293 293 293 293 293 294 294 294 295 295 296
279 279 279 279 279 279 279 280 280 280 280 281 281 282 282 282 283 283 283 283 283 283 283 283 283 283 283 283 283 284 284 285 284 285 285 285 285 285 285 285 286 286 287 287 287 286 287 288 287 287 287 288 288 289 290 291 291 291 292 292 292 292 292 292 292 292 293 293 293 294 294 294 295 295
280 280 280 280 280 280 280 280 280 281 281 280 280 281 281 282 282 282 282 282 283 283 283 283 284 284 284 283 283 283 284 284 284 285 285 285 285 285 285 285 285 286 286 287 287 287 287 288 287 287 287 287 287 288 289 290 290 290 291 291 291 291 291 291 291 291 292 292 293 293 293 293 293 294
280 281 281 281 280 281 281 281 281 281 281 281 281 280 280 281 281 282 282 282 282 282 282 283 283 284 284 284 283 283 283 284 284 284 284 284 284 284 285 285 285 286 285 286 286 287 287 287 287 287 288 288 287 287 288 289 289 290 290 290 290 290 290 291 291 291 291 291 292 292 292 292 292 292
280 281 281 281 281 281 281 281 281 281 281 281 281 281 281 281 281 281 281 281 282 283 282 282 283 283 284 284 284 284 284 284 284 284 284 284 284 284 284 284 285 285 285 285 286 286 287 287 287 287 287 288 288 288 288 288 289 289 290 290 290 290 290 291 291 291 291 291 291 292 291 291 291 292
279 280 280 280 281 281 281 281 281 281 281 281 281 281 281 281 281 281 281 281 281 282 282 282 282 283 284 284 284 284 284 284 284 284 284 284 284 284 284 284 284 285 285 285 285 286 286 287 287 287 287 287 287 287 287 288 288 289 289 289 289 289 290 290 290 290 291 291 291 291 291 291 291 291
279 279 279 279 279 280 280 281 281 281 281 281 282 282 282 282 281 281 281 281 281 281 281 281 282 282 283 284 284 284 284 284 284 284 283 284 284 283 283 283 284 284 285 285 285 285 286 286 287 287 287 287 287 287 287 287 288 288 288 288 288 289 289 289 289 290 290 290 290 290 291 291 291 291
278 278 278 279 279 279 280 280 281 281 281 281 281 281 282 282 282 282 282 281 281 281 281 281 281 282 283 283 284 284 284 284 284 284 284 284 284 283 283 283 284 284 285 285 285 285 285 286 286 286 286 287 287 287 287 287 287 287 288 288 288 288 288 288 288 289 289 289 289 290 290 291 291 291
278 279 279 279 280 280 280 281 281 282 282 282 281 281 282 282 282 282 282 282 282 281 281 281 281 282 282 283 284 284 284 284 284 284 284 284 283 283 283 283 283 284 285 285 285 285 285 285 286 286 286 286 286 286 287 287 287 287 287 287 287 287 287 287 287 287 288 288 288 289 289 290 291 291
279 280 280 280 280 280 281 281 281 281 282 282 282 282 282 282 282 282 282 282 282 282 282 281 281 282 282 283 283 284 284 284 284 284 284 284 283 284 284 283 283 284 285 285 285 284 284 285 285 285 285 285 285 286 286 286 286 286 286 286 286 285 285 286 286 286 286 287 287 287 288 288 289 290
280 280 280 280 280 280 281 281 281 281 281 281 281 281 282 282 282 282 282 282 282 282 282 282 282 282 282 283 283 283 284 284 284 284 284 284 284 284 284 284 283 283 284 285 284 284 284 284 284 284 285 285 285 285 285 286 285 285 285 284 284 284 284 284 284 284 285 285 285 286 286 287 288 288
279 279 280 280 280 280 281 280 280 281 281 281 281 281 281 281 282 282 282 282 282 283 283 282 282 283 283 283 283 283 283 284 284 284 284 284 284 284 284 284 283 283 284 284 284 284 284 284 284 284 284 285 285 285 285 284 284 284 284 284 284 284 284 283 283 283 283 283 284 284 284 285 286 286
279 279 279 279 280 281 280 280 280 281 281 281 281 280 280 281 281 282 282 282 282 282 283 283 283 283 283 283 283 284 284 284 284 284 284 284 284 284 284 284 284 283 283 283 284 284 284 284 284 284 284 285 284 284 284 284 284 284 284 284 284 284 283 283 283 283 283 283 283 283 283 283 284 284
279 279 279 279 280 280 280 280 280 281 281 281 281 281 280 281 282 282 282 282 282 282 283 283 283 283 283 283 284 284 284 284 283 283 284 284 284 284 284 284 284 283 283 283 284 284 284 284 284 284 284 284 284 284 284 284 284 284 284 284 284 284 284 283 283 283 283 282 282 282 282 282 283 283
279 279 279 279 279 278 278 279 279 280 281 281 281 281 281 282 283 283 283 282 282 282 283 283 283 283 283 284 284 284 284 284 283 283 283 283 283 283 284 284 283 283 283 283 284 284 284 284 284 284 284 284 284 284 284 284 284 284 284 284 283 283 283 283 283 283 282 282 282 282 282 282 282 282
279 279 278 278 278 278 278 278 278 279 280 281 281 281 281 282 282 283 283 283 283 283 283 283 283 283 283 284 284 284 284 284 284 283 283 283 283 282 283 283 283 283 283 284 284 283 283 283 284 284 283 283 284 284 284 284 283 283 283 283 283 283 283 283 283 282 282 282 281 281 281 282 282 282
278 277 277 277 277 277 277 277 277 278 278 279 280 281 281 281 281 282 283 283 283 283 283 283 283 283 284 284 284 284 284 284 284 283 283 282 282 282 282 282 283 283 283 283 283 283 282 282 283 283 283 283 283 283 283 283 283 283 282 282 282 282 282 282 282 282 282 282 281 281 281 281 281 281
277 276 276 276 276 276 277 277 277 277 277 278 279 280 280 280 280 281 282 283 283 283 283 283 283 283 284 284 283 283 284 284 283 283 282 281 281 281 282 282 282 283 283 283 283 283 283 283 283 283 283 283 283 283 283 282 282 282 282 282 282 282 282 282 282 282 282 282 282 281 281 281 281 281
275 275 275 275 275 276 276 276 276 276 277 277 278 279 279 280 281 281 282 282 283 283 283 283 283 283 283 283 283 283 283 283 283 282 281 281 281 281 281 281 282 282 283 283 283 283 283 283 283 283 282 282 282 282 282 282 282 282 282 281 281 281 281 281 281 281 281 281 281 282 281 281 281 281
274 274 274 274 275 275 275 275 275 276 276 277 277 278 278 279 280 281 282 282 282 283 283 283 283 283 283 283 283 283 283 283 282 282 282 282 282 281 281 282 282 282 282 282 282 282 282 282 282 282 282 282 282 281 281 281 281 281 281 281 281 281 281 281 281 281 281 281 281 281 281 281 281 281
274 274 274 274 274 274 274 275 275 275 275 276 276 277 278 278 279 279 280 281 281 282 282 282 282 282 282 283 283 283 283 282 282 282 282 282 282 282 282 282 282 282 282 282 282 282 282 282 282 282 281 281 281 281 281 281 281 281 281 281 281 281 281 281 281 280 280 280 280 280 280 280 280 280
274 274 274 274 274 274 274 275 275 275 275 275 276 276 276 277 277 278 279 280 280 281 282 282 282 282 282 282 282 282 282 282 282 282 282 282 282 282 282 282 282 282 282 282 282 282 282 281 281 281 282 281 281 281 281 281 281 281 281 281 281 281 280 280 280 280 280 280 279 279 279 279 279 279
273 273 273 274 274 274 274 275 275 275 275 275 275 275 275 276 276 277 278 278 279 279 280 280 281 281 281 282 282 282 282 282 282 282 282 281 281 281 281 281 281 281 281 281 281 281 281 281 281 281 281 281 281 281 281 281 281 281 281 281 280 280 280 280 279 279 279 279 279 279 279 279 278 279
273 273 273 273 273 274 274 274 274 275 275 275 275 275 275 275 275 276 277 277 277 278 278 278 279 279 280 280 280 280 281 281 281 281 281 281 281 281 281 281 281 281 281 281 280 280 280 280 280 280 280 280 280 280 280 280 280 280 279 279 279 278 278 278 278 278 278 278 278 278 278 278 278 278
272 272 272 272 273 273 273 273 273 274 274 275 275 275 275 275 275 275 275 275 276 276 276 277 277 277 277 278 278 278 279 279 279 279 279 280 280 280 280 280 280 280 280 280 280 279 279 279 278 278 278 278 278 278 278 278 278 278 278 278 277 277 277 276 277 277 277 278 278 278 277 277 277 277
Wind_Speed
30 30 31 32 34 34 33 32 33 34 35 34 32 33 34 32 30 27 24 24 25 24 24 27 28 29 31 31 30 30 34 41 44 44 44 44 45 44 43 42 44 48 52 53 52 52 52 52 53 55 57 57 57 56 53 50 45 39 36 38 43 45 43 42 41 40 38 36 35 36 35 34 32 31
29 29 29 30 31 32 32 32 32 32 34 36 35 34 35 35 33 31 27 28 30 27 26 27 25 25 27 30 32 31 30 33 38 42 44 45 47 49 48 47 44 44 47 52 54 53 53 52 53 55 57 58 59 58 55 52 48 43 37 36 39 43 45 45 43 42 41 38 39 39 37 35 33 32
30 31 30 30 31 32 32 32 32 32 32 34 35 36 36 36 36 36 33 32 33 33 33 33 31 27 24 25 29 30 30 31 34 37 39 42 45 47 50 52 52 49 47 49 54 55 53 53 53 54 56 58 59 60 58 53 50 48 43 37 36 39 43 46 46 45 43 41 40 40 38 37 35 34
30 32 32 32 32 33 33 33 32 32 32 33 33 34 35 35 34 35 36 36 38 38 36 37 37 35 31 29 30 29 27 28 31 34 35 38 40 43 46 49 52 53 51 49 53 56 55 54 54 54 55 57 58 60 60 56 52 50 47 41 37 36 39 44 47 46 45 43 42 41 40 39 38 36
28 30 32 33 33 34 34 34 33 32 32 32 32 32 32 33 33 33 33 35 38 40 39 38 40 41 39 37 38 37 34 30 29 30 32 33 35 40 43 44 45 47 48 48 50 55 56 55 55 55 55 55 56 58 60 60 55 51 50 47 42 38 37 41 46 48 47 45 45 44 42 41 39 38
26 28 29 31 32 32 33 33 33 34 34 33 33 33 31 32 33 33 33 33 35 39 40 40 40 40 39 39 40 41 41 38 34 33 33 32 30 34 40 43 41 40 42 44 46 51 55 55 55 56 56 55 55 55 58 60 59 54 51 51 48 43 39 38 42 48 49 47 47 46 44 42 42 40
29 30 31 30 30 30 32 33 33 33 34 34 35 36 35 34 35 35 34 34 35 37 39 40 39 38 38 38 39 40 40 38 38 39 38 36 33 33 36 40 40 38 40 42 43 46 53 56 55 55 56 56 55 55 55 57 60 58 53 52 52 47 42 38 38 43 47 48 47 46 44 43 43 43
31 31 31 31 30 30 31 32 33 33 33 33 34 36 37 38 39 39 38 38 38 38 39 41 41 39 38 38 38 39 38 37 38 40 39 38 37 36 35 35 36 36 39 42 42 43 48 54 56 56 55 55 55 56 55 55 58 59 56 53 53 51 47 43 39 39 42 46 47 46 45 45 45 44
30 30 30 30 30 30 29 29 30 32 31 31 32 33 34 35 37 38 38 38 39 39 41 43 43 40 39 39 38 38 38 38 39 39 39 37 36 35 33 33 32 32 36 41 44 43 43 48 54 56 55 55 55 56 57 56 56 58 58 55 53 53 51 48 45 41 40 43 45 45 45 45 45 45
31 32 33 33 32 32 32 31 31 31 30 30 30 31 32 33 34 34 35 36 37 39 41 43 43 41 40 40 39 37 37 38 39 39 38 37 35 33 33 35 36 35 34 38 42 43 42 43 49 55 56 56 55 56 56 57 56 56 57 56 55 54 53 52 50 46 42 42 44 46 45 43 42 42
34 34 34 34 33 33 33 32 31 30 30 30 30 30 30 31 33 33 33 33 33 35 37 38 39 41 41 40 39 37 36 37 38 38 37 35 35 35 35 36 38 38 36 37 40 43 42 40 43 49 54 56 55 54 54 55 56 56 56 56 55 55 55 54 53 51 48 45 44 44 45 44 41 39
30 29 29 29 30 31 31 30 29 28 28 29 29 28 28 30 31 30 30 30 30 30 32 34 35 36 38 38 37 37 37 37 37 37 36 35 36 38 39 39 39 38 37 38 39 41 42 40 41 44 49 53 54 52 51 53 54 55 55 54 55 55 55 55 54 53 52 50 47 45 43 42 42 40
24 23 23 24 25 26 26 26 26 26 27 28 29 28 28 28 28 27 26 27 28 28 29 31 33 34 36 37 38 39 39 38 38 37 36 36 37 39 40 40 39 37 36 37 38 40 41 40 40 42 46 50 53 51 50 51 53 54 53 52 52 54 55 55 54 53 52 52 51 49 46 43 41 41
20 20 20 20 21 21 21 21 22 24 26 27 29 29 28 27 26 25 25 26 26 25 26 27 30 34 39 39 37 37 36 33 32 31 32 35 37 38 38 38 38 36 35 35 36 39 41 39 39 41 44 47 51 52 51 52 53 54 53 51 50 50 52 54 53 52 51 50 50 50 48 46 44 43
21 20 20 20 20 21 21 19 18 20 24 27 28 28 27 25 25 26 27 28 26 25 26 26 24 25 31 35 34 31 26 24 23 22 25 31 34 35 36 37 37 35 34 34 34 37 39 38 37 39 42 44 48 51 52 51 52 54 54 52 49 48 50 51 52 50 48 48 49 49 48 47 46 46
23 22 21 20 21 24 25 22 19 20 24 27 26 25 25 25 26 28 29 29 28 26 26 27 24 17 15 20 23 21 17 16 17 17 19 25 31 34 34 36 36 33 31 31 32 34 37 36 35 36 40 43 45 47 49 49 50 52 54 54 51 48 48 49 49 49 48 46 45 46 46 46 46 46
24 24 23 22 22 23 22 20 19 19 22 25 24 22 23 25 26 29 30 29 28 26 25 26 25 19 13 11 11 10 11 12 13 14 16 20 27 31 30 32 32 30 29 28 28 30 33 34 34 34 36 39 42 43 44 45 46 48 51 54 53 50 48 48 48 48 47 47 45 45 44 44 43 44
24 24 24 23 22 19 18 18 16 15 15 19 20 19 21 23 24 26 28 29 29 28 26 26 25 21 16 14 11 8 9 11 11 11 12 16 21 22 22 24 25 24 24 24 24 27 30 32 33 34 34 35 37 39 40 42 43 44 46 48 50 50 50 49 49 49 48 47 46 45 45 45 44 43
23 23 23 22 19 17 18 18 14 12 12 13 16 18 19 20 20 21 24 28 29 28 27 27 26 23 20 17 15 13 11 10 9 7 7 10 13 12 11 15 17 17 17 19 22 25 28 29 31 32 32 33 33 35 35 37 40 42 43 43 45 46 47 47 48 49 49 49 49 48 47 47 46 44
21 21 21 20 18 17 18 17 14 13 13 13 14 16 17 18 19 18 18 21 24 26 26 27 26 25 22 19 17 16 15 12 8 7 6 8 9 9 8 9 11 12 11 14 21 23 23 25 27 28 30 31 31 31 31 31 34 36 39 41 42 43 43 43 44 45 46 47 48 49 48 48 49 48
16 16 15 16 17 17 18 18 17 17 17 18 18 17 16 17 19 19 18 17 18 20 22 24 25 24 23 21 19 18 18 16 12 10 10 10 9 9 10 11 12 11 8 11 18 19 17 18 21 23 25 26 26 27 27 27 27 28 31 34 36 38 40 41 42 42 42 43 44 45 46 46 47 48
12 12 13 14 16 18 18 18 18 18 19 20 22 21 20 19 19 19 18 18 18 18 18 20 21 22 22 22 20 19 19 18 16 14 12 11 10 9 11 13 13 12 10 9 14 16 13 12 14 17 18 18 19 21 23 24 24 24 25 27 28 30 31 33 34 36 38 39 40 41 42 42 43 45
18 17 16 15 16 18 19 18 18 19 19 20 22 23 22 23 23 21 18 18 17 18 18 18 19 20 21 21 21 22 21 20 19 17 13 11 11 10 9 10 11 12 12 11 13 15 12 9 11 15 14 13 13 14 17 20 21 22 23 23 23 23 23 24 25 27 29 31 32 34 35 35 35 37
20 19 18 17 17 18 18 18 18 19 20 20 22 22 22 25 26 23 21 19 17 16 17 18 18 19 20 21 22 22 22 22 21 18 15 13 13 11 10 11 11 10 10 10 12 15 13 9 11 14 13 10 10 12 14 16 17 18 19 20 20 20 20 21 21 22 23 25 26 27 29 30 29 29
17 18 19 19 19 18 19 19 20 20 20 20 21 23 24 25 26 24 23 22 19 16 16 17 18 18 18 20 22 22 22 23 22 20 19 17 16 15 13 13 14 12 9 8 10 13 14 12 13 15 13 10 9 10 12 14 15 16 16 17 17 18 18 18 19 20 21 22 23 23 24 25 26 27
17 18 19 20 20 21 21 20 20 20 20 20 20 22 23 23 23 24 24 23 22 21 20 19 17 17 18 18 19 21 22 22 22 23 21 19 18 17 14 12 14 14 12 9 8 10 14 15 14 14 14 12 9 8 8 10 12 14 15 15 15 16 16 16 17 18 19 20 22 22 22 22 23 25
16 15 16 17 19 20 22 22 21 21 21 22 22 21 21 21 20 21 22 23 23 24 24 22 18 16 17 17 18 20 21 20 20 22 22 20 18 17 15 13 13 14 14 12 8 8 13 16 15 13 12 11 11 9 8 8 8 10 12 14 14 15 15 16 15 16 16 17 19 21 23 23 24 26
13 15 16 17 17 17 18 19 21 21 21 22 23 23 21 21 20 20 21 22 23 24 25 25 20 16 16 17 17 18 19 19 18 18 19 19 18 17 16 15 15 15 14 13 9 8 13 17 15 12 11 11 11 11 10 8 8 8 10 12 13 13 14 14 14 15 16 16 17 19 23 25 25 25
12 14 15 16 16 15 15 14 15 16 16 16 18 20 20 19 19 20 21 21 23 24 24 25 23 20 17 16 17 16 17 19 19 17 18 19 18 18 18 17 17 17 16 14 12 11 15 18 15 12 12 12 11 11 12 10 10 9 9 10 10 10 11 12 13 13 14 16 16 17 20 24 25 25
12 13 12 11 11 11 10 9 7 7 8 8 10 12 15 17 18 19 20 20 22 23 23 23 23 21 17 15 16 16 16 17 18 17 19 20 20 19 19 18 18 19 17 14 13 13 15 17 16 13 13 13 12 12 13 12 11 11 10 9 8 9 10 11 13 14 15 16 17 17 18 21 24 26
13 13 10 8 8 7 7 7 6 5 6 7 7 7 9 13 16 17 17 17 19 20 20 20 20 19 16 14 15 15 15 15 16 16 17 19 19 20 20 19 18 20 20 16 15 15 14 14 14 13 11 13 14 13 12 12 12 11 11 10 10 10 9 10 11 13 14 16 17 19 20 20 22 25
16 14 10 8 8 8 8 9 8 8 9 9 10 10 10 12 14 15 14 15 16 18 18 18 17 18 17 15 13 13 15 16 16 15 15 17 17 18 20 18 17 20 21 20 18 17 15 13 13 14 13 13 14 13 12 11 11 11 11 10 11 11 10 9 10 10 12 14 16 18 20 21 22 23
15 13 10 9 9 9 10 10 9 9 9 9 10 12 12 12 14 16 16 16 16 16 17 18 18 17 16 15 14 14 16 17 15 14 14 15 15 15 17 18 16 17 20 21 20 20 18 15 13 14 14 14 14 14 13 12 12 12 11 11 11 12 11 11 11 11 12 14 15 16 18 20 22 23
11 10 10 10 10 10 8 6 6 7 7 6 7 7 7 7 8 9 11 13 14 14 14 16 18 18 16 16 16 15 16 16 14 13 14 14 13 13 15 17 16 15 16 18 18 19 19 18 17 16 15 14 15 15 15 14 14 13 12 12 13 13 13 13 13 13 14 15 17 18 20 20 21 22
7 8 10 11 13 15 13 10 7 4 3 3 3 2 1 2 3 2 7 11 13 13 14 16 18 18 16 16 16 15 14 14 13 13 13 12 13 14 14 15 16 14 13 15 16 15 17 19 19 18 16 15 14 15 15 15 15 14 13 14 15 15 15 15 15 16 17 17 18 19 21 22 21 21
7 7 9 11 14 16 17 16 14 10 6 3 2 2 1 1 3 2 4 9 11 11 12 14 17 18 16 14 14 15 15 14 14 14 13 12 13 13 12 12 13 12 11 12 12 11 11 12 14 15 15 14 14 15 15 15 16 17 16 17 18 18 18 18 19 20 20 18 17 18 20 21 21 20
7 9 10 13 15 16 17 17 16 15 12 8 5 3 1 1 3 4 3 5 7 8 9 10 12 14 14 12 11 13 14 14 12 11 10 9 11 12 11 12 13 12 11 11 11 10 8 8 9 10 12 13 15 17 18 18 18 19 19 19 20 20 20 20 20 20 19 18 17 18 19 20 21 20
7 9 11 12 14 14 15 15 15 16 15 12 9 6 4 2 2 3 4 4 5 7 8 9 9 9 10 10 9 9 12 13 11 9 8 8 10 12 13 14 15 13 11 11 12 11 10 10 10 10 11 14 16 18 19 18 18 18 17 17 17 18 19 19 19 18 17 17 18 18 18 20 21 20
4 6 8 10 11 12 13 13 14 14 14 13 12 10 8 6 4 4 5 5 5 6 7 7 8 8 9 9 9 11 14 13 11 9 9 8 10 13 14 15 15 14 13 12 12 13 12 12 12 11 11 13 14 15 14 14 14 14 13 13 13 14 16 17 17 17 17 17 18 18 20 21 22 22
5 6 7 8 9 10 11 11 12 12 12 12 11 10 9 9 7 6 6 6 7 7 7 7 8 10 11 12 12 13 14 12 9 8 8 7 8 10 12 13 13 12 12 11 11 11 11 11 11 11 11 12 12 13 13 14 14 15 14 14 14 15 16 17 17 18 19 19 19 21 22 23 25 26
5 6 7 8 8 9 9 10 10 10 10 9 8 8 7 8 8 8 7 6 7 8 7 7 8 9 11 12 12 11 10 9 9 9 9 10 10 10 11 11 12 11 11 11 11 11 11 11 12 12 13 14 14 14 16 17 18 18 18 18 18 19 20 21 21 22 22 22 23 24 25 26 28 29
6 6 7 8 8 8 9 9 8 7 7 7 7 6 6 5 6 6 5 5 5 6 7 6 6 7 8 9 10 10 9 9 10 10 10 10 10 10 11 12 12 12 13 13 13 13 13 13 14 14 15 16 16 18 19 21 21 21 21 22 22 23 23 24 24 24 25 25 26 27 28 28 29 31
7 8 8 8 8 8 8 8 7 6 5 5 5 5 5 4 3 2 2 2 2 3 4 5 5 6 6 7 8 9 9 9 10 10 10 10 10 11 12 12 13 13 14 14 15 15 15 15 15 16 17 17 18 19 20 21 22 22 23 24 24 24 24 24 24 24 25 25 26 27 28 28 29 31
8 9 9 9 9 8 8 8 6 5 4 3 4 4 4 3 2 1 1 1 2 2 3 4 4 5 6 7 7 8 8 8 9 10 10 11 11 12 12 13 14 15 15 16 16 17 17 17 17 18 18 19 20 20 21 21 22 22 22 22 22 22 21 22 23 23 24 24 25 25 26 27 29 30
8 9 10 9 8 8 7 7 6 5 3 3 3 3 3 2 2 2 1 1 2 2 3 4 4 5 5 6 7 7 8 8 9 10 10 10 11 12 12 13 13 14 15 16 16 16 16 16 17 17 17 18 18 18 18 19 19 19 19 19 19 19 19 20 20 21 22 23 23 23 25 27 29 30
Wind_Direction
258 258 257 258 260 260 259 259 258 255 255 256 256 254 255 261 265 268 272 270 264 259 255 257 259 254 249 248 248 252 255 252 251 253 255 256 256 255 253 248 240 234 232 232 236 240 242 242 240 239 238 237 237 236 235 234 235 236 238 233 229 229 231 228 223 221 220 216 213 213 213 214 214 215
259 260 258 256 257 258 258 259 258 256 255 255 255 255 253 255 259 262 267 268 265 261 255 251 251 254 253 248 248 253 260 260 257 257 258 257 257 256 255 254 250 244 238 233 232 236 240 241 241 240 239 237 237 237 235 234 233 233 234 234 232 229 228 229 227 226 224 220 217 214 212 213 214 215
260 259 259 257 256 258 258 257 257 257 256 255 254 256 256 256 257 259 262 267 265 261 259 254 247 246 248 247 248 251 253 254 254 256 259 259 259 259 258 256 255 254 250 242 235 234 236 238 239 240 240 238 237 237 237 234 232 233 233 233 234 232 229 229 228 226 224 223 222 218 214 213 214 215
256 256 256 256 256 258 258 258 257 256 255 256 255 255 257 257 256 256 258 262 264 262 262 261 256 252 248 246 249 251 249 247 245 244 248 254 258 259 258 257 256 255 254 250 241 235 235 236 236 237 239 238 237 237 238 236 232 231 232 232 232 234 232 229 226 223 223 225 225 220 215 214 214 216
259 258 257 257 257 257 257 255 255 254 253 255 255 254 253 254 253 253 255 259 263 264 262 263 263 261 259 256 255 258 259 256 252 245 241 244 251 255 256 257 257 253 251 250 244 238 236 237 236 235 236 237 237 236 237 238 235 231 230 231 232 232 233 230 224 221 221 224 226 223 218 214 214 217
264 264 262 262 261 259 259 257 257 257 255 254 255 254 252 253 252 252 254 258 263 265 263 263 264 264 265 263 259 261 263 263 263 262 255 250 251 253 252 253 255 252 247 246 246 242 238 237 236 235 235 235 235 236 236 237 237 234 229 229 231 231 232 232 226 221 219 220 223 224 220 215 213 216
262 266 267 265 263 260 261 261 260 260 258 255 253 252 252 254 254 252 254 257 260 264 264 263 264 264 265 266 263 261 264 266 268 269 267 263 261 259 254 252 253 251 245 243 245 244 240 238 236 235 235 235 233 234 235 235 236 236 231 228 230 230 230 230 228 224 220 218 219 221 221 218 214 215
260 265 267 266 263 261 261 261 259 259 258 257 255 254 253 253 253 254 255 257 258 261 263 263 264 265 266 267 265 261 262 267 269 269 269 266 264 264 261 256 254 253 248 244 243 243 241 239 237 235 235 235 233 231 232 234 234 235 233 229 229 229 229 228 228 227 224 222 220 220 222 221 218 216
257 258 259 260 261 262 262 260 258 258 258 259 260 259 258 256 255 256 258 259 259 259 262 263 263 264 265 266 266 262 261 266 268 267 266 265 265 263 257 254 256 258 255 250 245 242 240 238 237 236 234 235 234 230 230 232 232 233 234 231 229 229 228 228 229 228 225 224 222 221 218 217 217 218
252 254 256 257 257 258 258 258 258 260 261 263 263 262 259 256 256 259 261 260 260 259 260 261 262 262 264 264 263 260 259 262 264 264 264 264 264 261 253 252 257 261 260 255 249 245 242 238 236 235 234 234 234 231 228 229 230 232 233 232 230 229 228 228 229 228 226 224 224 224 221 217 216 218
255 257 258 259 257 255 257 259 261 262 262 264 264 262 259 256 257 260 260 259 260 258 256 257 259 261 263 263 261 259 260 260 258 258 260 260 261 260 257 256 258 259 259 256 252 249 246 242 237 235 233 233 233 232 228 227 228 230 231 232 231 230 229 229 229 229 228 225 224 226 226 224 222 220
261 260 258 256 255 255 256 257 258 259 260 263 264 262 259 259 261 261 259 258 259 258 256 256 259 262 262 261 260 258 257 255 253 252 252 255 258 259 260 260 258 257 257 255 251 248 247 243 239 236 234 233 233 232 228 227 227 228 229 231 231 231 230 229 229 230 230 229 228 228 228 227 226 225
260 258 254 250 250 252 254 255 254 255 256 259 260 259 258 261 263 262 260 259 259 260 259 260 263 265 262 259 258 255 253 251 250 249 248 252 257 258 258 259 258 257 257 254 250 246 244 241 238 235 234 233 233 231 227 225 225 226 227 228 229 230 230 229 229 229 230 231 230 230 230 229 229 229
262 257 254 251 250 252 257 258 255 253 253 254 256 257 257 259 259 260 260 259 259 260 259 264 269 265 258 255 254 251 248 247 246 247 247 250 253 252 252 253 255 257 256 253 252 248 243 239 236 233 233 233 232 231 228 225 224 224 224 225 225 226 227 228 228 229 230 231 232 231 231 231 230 230
268 264 259 256 260 269 277 277 267 260 257 254 253 254 254 253 255 259 261 260 260 261 260 270 282 271 253 248 244 240 239 240 243 248 249 248 245 242 242 245 249 252 252 251 253 251 246 241 236 232 231 232 231 231 231 229 227 225 224 224 223 222 222 224 225 226 228 229 231 232 232 232 232 232
268 267 265 266 274 282 287 288 284 279 268 254 249 250 251 251 252 254 257 258 259 261 263 272 285 288 267 249 239 232 232 238 245 249 250 246 241 238 239 242 245 250 251 249 250 251 248 243 239 234 230 230 230 230 231 232 230 228 225 224 224 222 221 222 223 223 225 227 229 230 230 230 231 232
269 269 269 272 275 275 277 278 282 286 269 248 242 248 251 253 252 250 250 252 254 258 264 270 275 282 291 288 268 244 237 244 247 248 249 245 239 237 239 242 246 248 248 245 244 246 245 242 240 238 233 229 228 227 227 229 231 230 227 226 225 224 223 223 224 223 224 226 227 229 230 230 230 230
263 265 265 268 271 272 274 277 284 294 276 245 239 247 251 252 253 251 250 250 250 254 260 266 269 272 277 288 295 283 255 248 246 245 247 244 240 239 241 243 245 245 244 243 239 237 238 236 235 236 235 231 228 226 224 225 227 228 229 228 227 227 226 225 226 226 225 224 225 227 229 230 231 231
264 265 264 266 271 276 280 282 285 296 290 261 246 249 252 254 256 255 251 250 251 255 258 262 267 270 271 271 277 284 280 265 249 243 251 250 247 248 246 244 244 242 240 236 227 226 230 228 225 227 229 229 229 227 225 223 223 225 227 227 227 228 228 226 226 226 226 226 225 225 225 226 227 229
271 271 269 269 270 268 271 276 276 275 279 273 261 256 256 258 261 262 258 254 254 255 257 260 262 265 266 264 263 269 277 273 252 239 248 249 249 251 248 244 243 240 233 218 213 220 227 223 219 220 220 221 223 223 223 222 222 223 226 228 229 229 229 229 228 227 227 227 228 228 228 228 228 229
280 281 281 281 280 272 265 267 268 265 265 265 265 267 265 261 262 263 263 262 258 256 255 256 257 257 258 257 254 255 263 265 258 251 253 256 260 256 248 247 247 247 240 211 205 217 229 222 215 215 215 215 216 215 216 216 216 217 220 225 230 231 231 231 231 231 231 230 230 232 233 234 233 232
304 302 298 292 287 281 274 269 266 264 262 261 261 263 264 263 262 261 261 262 260 258 255 252 251 251 249 248 245 243 248 255 256 254 254 259 264 257 248 252 253 249 246 223 203 211 224 215 202 201 201 202 206 207 206 206 206 206 207 211 218 222 225 226 226 227 228 228 229 229 231 232 233 233
301 299 298 291 285 284 285 283 275 267 263 262 260 258 256 255 255 256 260 263 263 260 256 251 249 248 245 242 239 236 237 243 248 248 246 250 256 252 242 244 247 244 243 230 207 208 213 201 191 193 184 176 183 193 196 197 199 200 199 201 206 209 213 217 219 219 221 222 223 223 224 226 227 229
292 290 290 288 283 282 282 280 275 267 262 261 262 260 256 252 250 252 254 258 261 261 257 252 249 247 242 239 237 236 234 235 237 239 239 242 245 243 230 223 229 241 248 236 217 212 213 204 199 200 193 182 180 184 188 191 194 197 198 198 201 205 208 212 215 216 218 219 219 220 219 218 218 221
282 278 277 277 277 276 275 273 272 269 264 260 258 257 257 255 254 254 253 250 251 255 256 253 249 246 243 238 235 234 234 233 233 233 235 236 236 236 230 221 220 225 234 237 226 214 210 209 204 199 196 195 195 191 189 190 191 194 197 199 201 204 208 211 214 216 217 218 219 218 217 217 217 218
285 278 273 270 268 266 267 268 269 268 267 264 260 257 258 259 257 255 252 248 247 249 254 256 251 244 243 240 234 231 233 233 232 232 232 232 233 232 231 226 221 217 217 226 229 214 210 211 209 203 198 195 194 194 191 190 190 192 196 200 202 206 209 212 215 218 220 222 222 217 213 214 216 218
298 299 292 281 273 267 263 262 261 260 260 260 259 258 259 260 258 253 250 248 247 248 250 253 251 243 240 241 237 232 231 230 229 227 225 227 228 226 223 222 217 212 210 216 223 220 215 213 211 211 211 204 200 201 194 185 187 192 196 200 204 207 211 215 218 221 224 227 227 219 211 209 212 215
305 307 301 294 288 280 271 265 262 261 260 256 254 253 252 254 255 250 246 245 245 246 246 246 246 243 238 238 238 235 230 227 225 220 217 220 223 220 218 217 212 207 205 204 203 208 213 213 209 208 216 222 222 218 210 197 194 199 201 205 209 212 214 218 221 225 228 231 232 225 216 211 210 213
309 303 296 292 290 285 280 277 270 268 267 262 258 255 250 249 251 250 247 244 242 243 244 240 240 243 241 235 234 236 232 224 219 212 209 214 218 217 215 214 210 209 206 196 188 194 205 209 206 202 211 224 227 223 219 214 210 211 210 209 213 218 222 223 224 226 229 232 234 232 226 220 216 215
323 315 308 302 298 294 293 287 274 274 277 271 269 264 252 246 248 248 246 243 240 241 243 238 235 240 245 238 231 234 236 227 218 213 209 211 215 217 216 213 209 210 209 198 187 191 200 205 207 207 210 214 216 217 218 215 208 206 208 211 217 225 233 237 237 238 238 237 237 236 233 229 225 222
339 333 329 322 311 302 292 274 259 273 293 282 276 277 262 251 250 251 248 244 239 235 235 234 232 234 242 245 234 228 228 226 224 223 219 216 217 217 215 212 209 210 213 209 197 193 194 197 203 206 205 207 210 211 211 207 201 199 205 212 218 225 235 244 247 249 250 249 246 243 240 236 233 231
343 340 338 330 311 295 289 282 272 277 286 277 269 272 266 249 245 249 247 242 237 232 226 226 228 230 234 237 231 220 219 221 224 228 224 218 217 215 213 214 212 210 214 217 211 204 202 201 201 199 196 198 203 204 204 203 200 199 204 211 219 227 236 243 251 256 257 256 255 254 250 246 242 239
339 341 340 331 318 305 295 288 277 273 278 279 274 271 266 257 253 250 241 234 234 234 227 222 222 225 226 224 219 218 220 220 220 221 218 214 216 217 217 219 220 216 215 217 214 211 213 214 209 202 196 194 197 203 212 217 217 217 220 225 232 238 243 245 247 248 251 256 260 262 260 256 251 248
338 353 2 4 0 352 337 313 290 274 271 280 281 266 260 273 277 255 226 219 225 230 226 219 216 219 223 219 214 215 215 212 209 209 210 212 217 219 218 221 224 222 217 217 218 218 217 216 211 206 202 199 200 205 213 221 227 232 237 242 245 246 244 242 238 238 246 255 258 258 257 256 253 252
350 11 22 31 32 29 30 30 16 350 307 302 315 299 266 325 333 256 203 210 219 222 221 216 213 214 216 213 212 213 210 204 202 204 207 215 221 221 223 226 225 220 214 214 216 217 213 209 206 205 204 204 207 211 213 217 223 230 238 246 251 250 245 241 243 249 256 260 256 252 252 251 250 251
8 26 38 49 49 44 43 44 41 41 44 46 46 43 36 43 51 73 194 215 220 221 219 214 208 205 205 205 208 209 204 198 199 203 210 221 224 220 221 222 220 218 215 206 198 196 198 200 201 205 208 209 214 220 224 225 228 235 242 248 252 253 252 253 257 263 269 271 264 257 255 254 253 252
33 45 48 53 55 51 48 46 47 51 54 60 74 86 100 124 90 87 121 186 201 197 195 197 195 194 196 197 197 197 196 197 202 211 225 233 221 210 206 203 204 213 218 206 193 192 202 211 212 214 218 219 222 227 231 233 237 243 249 253 254 256 259 261 263 267 271 272 271 268 266 264 262 260
47 50 43 42 43 43 42 41 42 48 54 59 69 83 94 108 130 127 130 156 180 180 180 185 186 186 189 190 191 197 204 207 209 217 232 228 204 195 198 197 195 201 210 209 206 210 218 226 231 236 237 235 234 236 238 239 241 245 248 250 252 255 258 261 264 268 271 272 275 276 275 273 270 267
25 32 27 25 26 26 26 27 29 35 43 50 56 68 81 89 116 152 158 168 184 187 187 190 191 191 194 196 203 211 212 210 210 219 231 225 201 196 202 202 199 202 209 212 216 224 230 232 234 239 244 244 245 247 248 249 249 249 248 249 251 255 259 262 265 268 269 271 274 276 275 274 272 268
360 359 357 0 6 9 11 13 17 23 30 37 43 53 67 78 93 115 133 152 167 175 182 189 190 193 198 201 207 210 207 205 214 229 236 232 213 204 207 211 214 220 226 229 231 236 240 239 236 237 241 246 251 256 260 261 260 259 260 262 264 265 267 269 269 269 270 271 273 273 272 272 271 270
1 353 350 352 353 354 358 360 4 12 20 26 31 38 50 64 77 89 102 121 141 154 166 178 183 189 194 197 201 205 206 209 219 227 228 227 222 215 213 217 222 228 234 238 240 242 242 243 244 244 245 249 253 255 257 260 263 265 266 266 266 267 269 269 270 270 270 270 270 270 271 271 272 270
14 4 358 357 353 351 352 352 352 357 8 18 25 29 35 46 59 73 87 103 121 135 148 160 168 179 191 196 200 208 217 220 222 222 221 220 219 218 219 222 226 232 236 239 241 242 242 243 245 246 247 249 250 251 253 256 259 262 263 263 263 263 263 263 263 263 263 264 265 266 268 269 270 269
12 4 356 350 347 345 345 348 351 353 357 7 19 26 30 36 47 68 94 114 125 135 148 160 167 178 193 205 213 220 225 225 226 225 223 220 221 223 226 228 231 235 239 242 244 245 245 246 247 248 250 251 252 253 255 257 258 260 262 263 264 263 261 261 261 261 260 261 262 263 264 265 265 268
4 0 355 349 343 340 339 342 348 352 355 2 14 18 19 27 42 57 104 171 198 200 193 192 195 199 206 213 218 222 222 222 224 226 226 227 227 227 229 230 231 233 237 240 243 245 246 246 247 248 249 251 252 253 255 257 259 261 263 265 266 266 264 264 264 265 265 264 264 263 263 262 264 267
2 1 358 353 347 344 347 348 349 353 359 7 15 12 7 16 39 55 84 136 181 201 210 213 216 219 223 225 226 228 228 228 230 231 233 235 235 233 234 234 234 236 239 241 241 243 244 243 244 246 248 249 251 253 256 258 260 261 262 263 264 266 267 268 268 268 267 266 264 263 263 264 266 269